Вернуться в каталог

NIMBUS 2 DEB

АктивенLEO
NORAD 40641·DEBRIS·🇺🇸 United States

Запущен May 15, 1966 с Vandenberg Space Force Base

Loading…

Ближайшие Пролёты (ближайшие 24 часа)

TLE

СвежийSource: Space-Track

Эпоха: Sep 12, 2026, 23:03 UTC

1 40641U 66040BE  26255.96073120  .00001143  00000-0  19907-2 0  9996
2 40641 100.4042 149.2555 0051552 340.6419  19.2752 13.45609408554712

Отслеживайте NIMBUS 2 DEB в реальном времени с AllMySat

Download on the App Store